Location: Killam
(52.7910°N, 111.8608°W)
Time: 21:16:06
(UTC+00:00)

CUTE-I - Visible Passes

Search period start: 16 March 2026 00:00
Search period end: 26 March 2026 00:00
Orbit: 803 x 819 km, 98.7° (Epoch: 15 March)

Date Brightness Start Highest point End Pass type
(mag) Time Alt. Az. Time Alt. Az. Time Alt. Az.
16 Mar ? 02:31:37 10° WSW 02:34:27 15° W 02:37:19 10° NW visible
16 Mar ? 12:58:29 10° NE 13:02:52 26° E 13:07:13 10° SSE visible
17 Mar ? 02:06:39 10° SW 02:10:40 22° W 02:14:44 10° NW visible
17 Mar ? 12:35:41 10° NE 12:39:06 17° E 12:42:32 10° SE visible
18 Mar ? 12:13:48 10° ENE 12:15:16 11° E 12:16:44 10° E visible
20 Mar ? 02:38:20 10° WSW 02:40:41 13° W 02:43:03 10° WNW visible
21 Mar ? 02:13:05 10° SW 02:16:52 20° W 02:20:41 10° NW visible
21 Mar ? 12:41:35 10° NE 12:45:19 19° E 12:49:02 10° SE visible
22 Mar ? 12:19:17 10° ENE 12:21:30 13° E 12:23:43 10° ESE visible
24 Mar ? 02:45:13 10° WSW 02:46:54 11° W 02:48:36 10° WNW visible
25 Mar ? 02:19:34 10° SW 02:23:04 18° W 02:26:35 10° NW visible
